This is the latest recevied weather packets stored in our database for station/object OE6PWE-13. If no packets are shown the sender has not sent any weather packets the latest 10 day(s).
| Time | Temp. | Humidity | Pressure | Rain* | Wind** | Luminosity | Snow |
|---|---|---|---|---|---|---|---|
| 1788351312 | 26.67° C | 56% | 1019 hPa | 0 mm | - | - | - |
| 1788350411 | 26.67° C | 57% | 1019 hPa | 0 mm | - | - | - |
| 1788348612 | 26.11° C | 60% | 1019 hPa | 0 mm | - | - | - |
| 1788347711 | 26.11° C | 65% | 1020 hPa | 0 mm | - | - | - |
| 1788346812 | 25.56° C | 63% | 1020 hPa | 0 mm | - | - | - |
| 1788345012 | 25° C | 65% | 1020 hPa | 0 mm | - | - | - |
| 1788344112 | 25° C | 67% | 1020 hPa | 0 mm | - | - | - |
| 1788343212 | 25° C | 70% | 1021 hPa | 0 mm | - | - | - |
| 1788341411 | 22.78° C | 74% | 1021 hPa | 0 mm | - | - | - |
| 1788340512 | 22.22° C | 76% | 1021 hPa | 0 mm | - | - | - |
| 1788339612 | 21.11° C | 80% | 1021 hPa | 0 mm | - | - | - |
| 1788338712 | 18.89° C | 96% | 1022 hPa | 0 mm | - | - | - |
| 1788337812 | 17.78° C | 99% | 1022 hPa | 0 mm | - | - | - |
| 1788336911 | 17.22° C | 99% | 1022 hPa | 0 mm | - | - | - |
| 1788336012 | 17.22° C | 99% | 1022 hPa | 0 mm | - | - | - |
| 1788335111 | 16.67° C | 99% | 1022 hPa | 0 mm | - | - | - |
| 1788334212 | 16.67° C | 99% | 1022 hPa | 0 mm | - | - | - |
| 1788333312 | 16.67° C | 99% | 1022 hPa | 0 mm | - | - | - |
| 1788332412 | 15.56° C | 99% | 1022 hPa | 0 mm | - | - | - |
| 1788331512 | 15° C | 99% | 1022 hPa | 0 mm | - | - | - |
| 1788330612 | 15° C | 99% | 1022 hPa | 0 mm | - | - | - |
| 1788329712 | 15° C | 99% | 1022 hPa | 0 mm | - | - | - |
| 1788327911 | 15° C | 99% | 1022 hPa | 0 mm | - | - | - |
| 1788294612 | 16.67° C | 93% | 1021 hPa | 0 mm | - | - | - |
| 1788293712 | 16.67° C | 93% | 1021 hPa | 0 mm | - | - | - |
* Rain latest hour (hover to see other rain measurements)
** Current wind speed in m/s (hover to see current wind gust speed)